Location: El Bakhil
(32.7726°N, 5.5387°W)
Time: 19:21:22
(UTC+00:00)

Cosmos 2333 Rocket - Pass Details

Date: 03 March 2021
Orbit: 837 x 864 km, 70.8° (Epoch: 09 April)

Event Time Altitude Azimuth Distance (km) Brightness Sun altitude
Rises 18:43:02 0° 161° (SSE) 3,378 5.2 -5.4°
Reaches altitude 10° 18:46:08 10° 144° (SE) 2,452 4.3 -6.1°
Maximum altitude 18:50:00 19° 100° (E) 1,892 3.4 -6.9°
Drops below altitude 10° 18:53:54 10° 56° (ENE) 2,473 4.1 -7.7°
Sets 18:57:01 0° 40° (NE) 3,418 5.0 -8.3°
